MDT,Max TemperatureF,Mean TemperatureF,Min TemperatureF,Max Dew PointF,MeanDew PointF,Min DewpointF,Max Humidity, Mean Humidity, Min Humidity, Max Sea Level PressureIn, Mean Sea Level PressureIn, Min Sea Level PressureIn, Max VisibilityMiles, Mean VisibilityMiles, Min VisibilityMiles, Max Wind SpeedMPH, Mean Wind SpeedMPH, Max Gust SpeedMPH,PrecipitationIn, CloudCover, Events, WindDirDegrees
2013-5-1,50,38,26,17,9,-2,63,38,12,30.61,30.40,30.15,10,10,10,15,7,23,0.00,4,,2
2013-5-2,59,39,19,17,11,4,68,40,11,30.71,30.57,30.37,10,10,10,14,4,21,0.00,0,,191
2013-5-3,65,49,33,31,19,10,56,35,13,30.38,30.15,30.01,10,10,10,15,4,21,0.00,1,,22
2013-5-4,62,52,42,39,33,30,67,50,32,30.05,30.00,29.96,10,10,6,20,9,28,0.04,3,Rain-Thunderstorm,44
2013-5-5,68,53,37,38,32,27,76,50,24,30.03,29.95,29.88,10,10,10,18,7,25,0.00,2,Thunderstorm,57
2013-5-6,72,53,34,38,32,25,82,51,20,29.97,29.89,29.81,10,10,10,24,5,31,T,2,Rain,88
2013-5-7,71,54,37,47,39,32,89,58,26,29.96,29.90,29.79,10,10,5,30,5,37,0.16,2,Rain-Thunderstorm,169
2013-5-8,75,56,36,42,34,19,92,53,13,30.05,30.00,29.93,10,10,10,22,5,33,0.00,0,,66
2013-5-9,71,55,38,40,36,31,85,54,23,30.14,30.09,30.04,10,10,10,16,4,28,0.00,1,Thunderstorm,336
2013-5-10,77,58,38,38,30,18,85,49,12,30.24,30.18,30.13,10,10,10,17,5,22,0.00,1,,47
2013-5-11,77,59,41,41,32,26,67,42,17,30.27,30.21,30.12,10,10,10,15,4,20,0.00,1,,275
2013-5-12,84,64,44,40,37,32,76,47,18,30.19,30.09,29.97,10,10,10,17,6,23,0.00,0,,197
2013-5-13,86,67,48,43,36,31,71,43,14,30.05,29.94,29.81,10,10,10,29,12,39,0.00,0,,206
2013-5-14,77,64,50,42,36,27,59,38,16,29.94,29.85,29.76,10,10,10,29,15,43,0.00,0,,203
2013-5-15,79,60,41,40,35,30,76,48,19,29.93,29.82,29.72,10,10,10,20,8,25,0.00,0,,224
2013-5-16,71,62,52,44,39,33,71,50,29,29.81,29.76,29.72,10,10,10,21,10,29,T,6,Rain,212
2013-5-17,61,55,49,48,44,42,93,73,53,29.91,29.84,29.79,10,10,7,20,9,25,0.05,5,Rain,198
2013-5-18,54,50,46,44,43,41,93,79,64,30.00,29.94,29.86,10,10,10,18,7,25,0.03,7,Rain,212
2013-5-19,56,50,44,45,42,40,100,78,55,30.10,30.05,30.00,10,8,2,14,5,20,0.44,8,Rain,304
2013-5-20,65,54,42,45,41,37,89,63,37,30.14,30.09,30.03,10,10,10,14,2,16,T,5,Rain,24
2013-5-21,70,55,39,42,38,33,92,59,26,30.05,29.88,29.66,10,10,10,14,6,20,0.00,2,,126
2013-5-22,61,52,42,43,34,23,71,53,35,29.87,29.71,29.59,10,10,10,21,11,29,0.00,3,,205
2013-5-23,63,51,39,36,31,26,76,53,30,29.92,29.85,29.73,10,10,10,21,8,28,T,3,,232
2013-5-24,66,53,39,32,25,18,67,42,17,30.03,29.95,29.87,10,10,10,25,11,31,0.00,1,,199
2013-5-25,69,52,35,37,31,23,82,50,17,29.89,29.87,29.85,10,10,10,20,7,26,0.00,0,,201
2013-5-26,71,56,40,45,35,30,79,51,23,29.88,29.85,29.80,10,10,10,20,5,29,0.01,2,,217
2013-5-27,64,54,44,42,36,29,76,53,29,30.00,29.88,29.80,10,10,10,23,10,30,0.01,4,,198
2013-5-28,58,52,46,47,42,33,93,70,46,29.83,29.76,29.69,10,9,2,17,6,23,0.16,7,Rain,216
2013-5-29,58,52,45,46,43,38,100,81,61,29.82,29.75,29.68,10,9,2,21,7,28,0.31,7,Rain-Thunderstorm,209
2013-5-30,62,53,43,41,37,29,89,60,31,29.94,29.86,29.75,10,10,10,23,8,30,0.03,7,Rain,203
2013-5-31,66,55,43,39,30,24,76,49,22,30.21,30.09,29.96,10,10,10,12,5,18,0.00,3,,349